www.pogodaiklimat.ru

Погода и климат >> Архив погоды >> Индия >> Ludhiana


ПОГОДА в Ludhiana

  • Прогноз погоды в Ludhiana
  • Монитор погоды в Ludhiana
  • Климат города

АРХИВ ПОГОДЫ в Ludhiana

Время (UTC), дата Ветер
(напр.,м/с)
 
Видим.   Явления Облачность Т
(С)
Тd
(С)
f
(%)
Тe
(С)
Тes
(С)
Комфортность P
(гПа)
Po
(гПа)
Тmin
(С)
Tmax
(С)
R
(мм)
R24
(мм)
S
(см)
00 11.01 0 {снег} н/о
03 11.01 ЮЗ 1 500 м дымка 3/0 2000 м
[Ac trans]
+9.8 +6.4 79 +9 +10 1018.4 1018.0 +8.3 +22.9
06 11.01 З 2 1000 м мгла 5/0 2000 м
[Ac trans]
+19.4 +2.7 33 +20 +26 1017.9 1018.0
09 11.01 0 {морось} н/о
12 11.01 З 2 1000 м мгла 8/0
[Ac trans]
+19.2 +1.0 30 +20 +20 1015.0 1015.0 +22.9
15 11.01 0 {туман} н/о
18 11.01 0 {туман} н/о
21 11.01 0 {морось} н/о +30.1 +30.1 100
00 12.01 0 {морось} н/о +30.1 +30.1 100
03 12.01 штиль 0 500 м дымка 5/0
[Ac trans]
+10.8 +8.8 87 +10 +11 1015.8 1016.0 +9.5 +22.9
06 12.01 З 2 2000 м мгла ясно +20.8 +2.5 30 +22 +29 комфорт 1016.6 1017.0
09 12.01 0 {гроза} н/о
12 12.01 З 2 2000 м мгла 4/0
[Ac trans]
+20.0 +3.0 32 +21 +21 комфорт 1014.2 1014.0 +23.0
15 12.01 0 {морось} н/о
18 12.01 0 {снег} н/о
21 12.01 0 {ливн. осадки} н/о
00 13.01 0 {метель} н/о
03 13.01 Ю 1 200 м туман ?/? +7.0 +6.6 97 +6 +6 1017.8 1018.0 +4.7 +23.0
06 13.01 ЮВ 1 500 м мгла {туман} ясно +18.0 +9.2 56 +20 +29 1017.8 1018.0
09 13.01 0 {ливн. осадки} н/о -0.6 -0.5 100
12 13.01 З 2 2000 м мгла ясно +18.4 +6.9 47 +19 +19 1014.0 1014.0 +22.1
15 13.01 0 {гроза} н/о -0.6 -0.5 100
18 13.01 0 {снег} н/о -0.5 -0.5 100
21 13.01 0 {снег} н/о -10.5 -0.5 100
00 14.01 0 {туман} н/о
03 14.01 штиль 0 200 м туман ясно +7.6 +7.6 100 +6 +8 1017.0 1017.0 +4.4 +22.1
06 14.01 З 2 2000 м мгла {туман} ясно +19.0 +3.9 37 +20 +28 1017.2 1017.0
09 14.01 0 н/о
12 14.01 З 2 2000 м мгла ясно +18.6 +2.6 34 +19 +19 1014.9 1015.0 +23.0
15 14.01 0 {снег} н/о
18 14.01 0 {гроза} н/о
21 14.01 0 {дождь} н/о
00 15.01 0 {дождь} н/о
03 15.01 штиль 0 200 м туман ясно +8.2 +6.9 92 +7 +9 1018.1 1018.0 +7.6 +23.0
06 15.01 ЮЗ 1 2000 м мгла {туман} ясно +16.0 +6.7 54 +17 +26 1018.3 1018.0
09 15.01 0 {дождь} н/о
12 15.01 З 3 2000 м мгла ясно +17.6 +3.5 39 +18 +18 1014.4 1014.0 +21.0
15 15.01 0 {туман} н/о
18 15.01 0 {морось} н/о
21 15.01 0 {туман} н/о
00 16.01 0 {туман} н/о
03 16.01 СЗ 1 500 м туман местами 1/0
[Ac trans]
+6.8 +4.2 83 +6 +7 1015.1 1015.0 +4.2 +21.0
06 16.01 З 3 1000 м мгла {туман} ясно +20.2 +2.7 31 +21 +28 комфорт 1014.3 1014.0
09 16.01 0 {туман} н/о
12 16.01 штиль 0 4000 м мгла ясно +20.8 +4.4 34 +21 +21 комфорт 1011.5 1012.0 +24.6
15 16.01 0 н/о
18 16.01 0 {гроза} н/о
21 16.01 0 {ливн. осадки} н/о
00 17.01 0 {снег} н/о
03 17.01 В 3 200 м туман ?/? +10.8 +9.2 90 +9 +9 1015.1 1015.0 +7.6 +24.6
06 17.01 ЮВ 4 1000 м мгла {туман} 3/0 2000 м
[Ac trans]
+17.8 +8.5 54 +18 +22 1016.1 1016.0
09 17.01 0 {туман} н/о
12 17.01 В 2 2000 м мгла 5/0
[Ac trans]
+18.0 +9.7 58 +19 +19 1013.5 1014.0 +21.9
15 17.01 0 {туман} н/о +30.1 +30.1 100
18 17.01 0 {дождь} н/о

 

Местоположение метеостанции Ludhiana (Punjab, Индия): широта 30.87 долгота 75.93 высота над уровнем моря 255 м.

В архиве по умолчанию представлена погода в Ludhiana за последнюю неделю. Архивные данные за месяц целиком и за предыдущие месяцы, начиная с января 2011 года, Вы можете получить, выбрав интересующий диапазон дат из раскрывающегося списка и нажав кнопку "Ввод!".

Внимание! Время в таблицах - всемирное. Для получения местного времени необходимо прибавить поправку, которая в Ludhiana равна 5.5 ч.

Смотрите также архив погоды в соседних городах и на ближайших метеорологических станциях:

Погода в Una (Himachal Pradesh, Индия) (74 км)
Погода в Patiala (Punjab, Индия) (79 км)
Погода в Chandigarh (Chandigarh, Индия) (85 км)
Погода в Ambala (Haryana, Индия) (96 км)
Погода в Sundernagar (Himachal Pradesh, Индия) (118 км)
Погода в Shimla (Himachal Pradesh, Индия) (121 км)
Погода в Amritsar (Punjab, Индия) (132 км)
Погода в Kangra (Himachal Pradesh, Индия) (141 км)
Погода в Bhuntar (Himachal Pradesh, Индия) (159 км)
Погода в Dharamsala (Himachal Pradesh, Индия) (161 км)

Пояснения к столбцам:

Ветер - указаны скорость ветра в м/с - средняя за 10 мин, порывы в срок и между сроками (в фигурных скобках) и направление, откуда дует ветер: С - северный, СВ - северо-восточный, В - восточный, ЮВ - юго-восточный, Ю - южный, ЮЗ - юго-западный, З - западный, СЗ - северо-западный.
Видимость - горизонтальная дальность видимости в метрах или километрах. При видимости от 1 до 10 км при отсутствии осадков обычно наблюдается дымка, при ухудшении видимости до 1 км и менее - туман. В сухую погоду видимость может ухудшаться дымом, пылью или мглою.
Явления - указаны атмосферные явления, наблюдавшиеся в срок или в последний час перед сроком; фигурными скобками обозначены явления, наблюдавшиеся между сроками (за 1-3 часа до срока); квадратными скобками обозначены град или гололедные отложения с указанием их диаметра в мм.
Облачность - указаны через наклонную черту общая и нижняя облачность в баллах и высота нижней границы облаков в метрах; квадратными скобками обозначены формы облаков: Ci - перистые, Cs - перисто-слоистые, Cc - перисто-кучевые, Ac - высококучевые, As - высокослоистые, Sc - слоисто-кучевые, Ns - слоисто-дождевые, Cu - кучевые, Cb - кучево-дождевые. Подробнее классификацию облаков см. в Атласе облаков (PDF).
T - Температура воздуха - температура, измеренная на высоте 2 м над землей.
Td - Температура точки росы - температура, при понижении до которой содержащийся в воздухе водяной пар достигнет насыщения.
f - Относительная влажность воздуха - влажноcть воздуха, измеренная на высоте 2 м над землей.
Te - Эффективная температура - температура, которую ощущает одетый по сезону человек в тени. Характеристика душности погоды. При расчете учитывается влияние влажности воздуха и скорости ветра на теплоощущения человека.
Tes - Эффективная температура на солнце - температура, которую ощущает человек, с поправкой на солнечный нагрев. Характеристика знойности погоды. Зависит от высоты солнца над горизонтом, облачности и скорости ветра. Ночью, в пасмурную погоду, а также при ветре 12 м/с и более поправка равна нулю.
P - Атмосферное давление - приведенное к уровню моря атмосферное давление.
Po - Атмосферное давление - измеренное на уровне метеостанции атмосферное давление.
Tmin - Минимальная температура - минимум температуры воздуха на высоте 2 м над землей.
Tmax - Максимальная температура - максимум температуры воздуха на высоте 2 м над землей.
R - Количество осадков - Количество выпавших осадков за период времени, мм. При наведении курсора мыши на число - период времени, за который выпало указанное количество осадков.
R24 - Количество осадков - Количество выпавших осадков за 24 часа, мм.
S - Снежный покров - Высота снежного покрова, см. При наведении курсора мыши на число - состояние снежного покрова и степень покрытия местности в баллах.